POPACS 2

Last updated on Fri Jul 11 2025 00:03:41 GMT+0000 (Coordinated Universal Time)

1 39269U 13055E 25191.35447701 .00008276 00000+0 16139-3 0 9997 2 39269 80.9949 171.2231 0473707 200.2722 157.9119 14.76471589612510
UTC large
Height (km)
Speed (km/s)
/
Latitude / Longitude
Inclination (degrees)
Orbital Period (minutes)
Azimuth
Elevation
Range (km)
Doppler Factor

Next 0 passes for location: London (51.5072 / 0.1276)

Sorry there are no passes over London.